Wind_Speed
22 22 23 22 21 21 21 20 19 18 17 16 15 14 14 13 13 13 13 13 13 12 11 10 9 9 10 10 10 9 8 7 6 6 5 5 5 5 4 4 4 5
22 22 22 23 22 22 22 22 21 20 19 17 16 15 16 16 16 15 14 15 14 13 13 12 11 10 10 10 10 10 9 8 8 7 7 6 5 5 4 4 4 5
23 22 22 22 22 22 23 23 23 22 21 20 19 18 17 18 17 16 16 15 15 14 14 13 12 12 11 11 11 11 10 10 10 9 8 7 6 5 5 4 3 4
23 23 22 22 21 22 23 24 24 23 22 21 21 20 19 19 19 18 17 16 15 15 15 14 13 13 13 12 12 11 11 11 11 11 10 9 7 6 6 5 4 4
22 22 22 22 22 22 23 23 24 24 23 22 21 21 21 21 20 19 18 17 16 16 15 15 14 14 14 14 13 13 13 13 13 12 11 10 9 9 8 7 6 6
24 23 22 22 23 23 24 22 21 23 24 23 23 22 22 21 21 20 19 17 17 16 16 15 15 14 14 14 14 14 14 14 14 14 13 12 12 11 10 9 8 8
26 25 24 23 23 24 25 23 22 22 23 25 24 23 22 22 21 21 20 19 19 18 17 16 15 15 15 15 15 15 15 16 16 16 15 14 14 14 12 11 10 9
26 26 25 24 24 25 25 25 24 22 22 25 26 25 25 24 22 22 21 21 21 20 19 18 17 16 16 16 16 16 16 16 17 17 16 16 16 15 14 14 13 12
27 27 27 26 26 25 25 25 25 23 23 24 25 26 26 26 25 24 23 23 23 22 22 21 20 19 18 17 17 17 17 17 17 17 17 17 17 17 17 17 16 14
28 28 28 28 28 27 26 25 25 24 24 24 24 25 27 27 27 26 26 25 25 24 24 23 22 21 20 19 18 18 18 18 18 18 18 18 18 18 18 19 19 17
30 29 29 29 28 28 27 26 25 25 25 25 25 25 26 26 27 27 27 27 26 25 25 24 23 23 22 22 21 20 20 19 19 20 19 18 18 19 20 21 21 20
31 31 30 29 29 28 27 26 27 27 27 26 26 26 26 26 27 27 27 27 27 26 26 25 24 24 24 23 23 22 22 22 22 22 21 20 19 19 20 21 22 21
32 32 31 30 29 28 28 28 28 28 28 27 27 27 27 27 28 28 28 28 27 27 26 26 25 25 25 24 24 24 24 24 24 24 23 22 21 21 21 21 22 22
32 32 32 31 30 30 29 29 29 29 29 28 28 28 28 28 28 28 28 28 28 28 27 27 27 27 26 26 26 26 26 26 26 26 26 25 24 23 23 23 22 22
33 33 32 32 31 31 30 29 29 29 29 29 30 30 29 29 29 29 29 30 29 29 28 28 28 28 28 27 27 28 28 27 27 27 27 27 26 26 26 25 24 22
34 34 33 33 32 31 31 30 30 30 30 31 31 31 30 30 30 31 31 31 31 30 30 30 29 29 28 27 27 28 29 29 29 28 28 28 28 28 28 27 25 24
32 34 34 34 33 32 32 31 31 31 31 31 31 31 31 31 31 32 32 31 31 31 31 31 30 29 28 27 26 27 28 29 30 29 29 29 30 30 30 29 27 26
30 32 34 34 33 32 32 31 32 32 32 32 32 32 32 32 32 32 32 32 32 32 32 31 30 28 28 27 26 26 27 28 30 30 30 30 30 31 31 30 29 28
30 31 33 34 34 33 32 32 33 33 33 33 33 33 33 33 32 32 31 32 32 32 32 31 30 29 28 27 26 26 26 28 29 30 30 30 31 31 32 32 31 30
31 30 31 32 33 33 34 34 34 34 33 33 34 34 34 33 32 32 31 31 31 31 31 31 30 29 28 27 26 26 26 27 29 30 30 30 30 31 32 33 32 32
31 31 31 31 32 33 34 34 34 33 33 33 33 34 34 34 33 33 32 31 31 30 31 30 29 28 27 27 26 25 25 27 28 30 31 31 31 31 32 32 32 32
32 31 31 30 30 31 32 32 32 32 32 32 32 33 33 34 34 33 33 32 31 31 31 30 28 26 26 26 26 25 26 27 29 30 31 32 31 31 31 32 32 32
32 32 32 31 30 30 30 30 30 31 31 31 31 32 33 33 33 32 32 32 32 31 31 30 27 26 26 26 25 26 27 28 29 29 31 32 31 31 31 31 31 31
33 33 32 32 32 31 31 31 30 30 30 30 30 31 32 33 33 33 33 32 31 30 29 29 28 27 26 26 25 27 28 29 29 30 30 31 31 31 30 30 30 30
33 33 33 33 33 33 33 32 32 31 31 31 31 32 32 33 34 34 34 31 30 29 28 28 27 27 27 27 26 27 29 29 30 31 31 30 30 30 30 29 29 28
33 32 33 33 34 34 34 34 34 33 33 33 32 32 32 33 34 35 35 33 31 29 28 28 27 26 27 27 26 27 29 30 31 32 31 31 30 29 28 28 27 26
Wind_Direction
210 211 212 213 210 210 212 212 212 213 216 217 216 217 218 220 223 223 221 220 218 216 212 204 195 188 184 185 185 185 183 181 184 186 183 173 162 158 153 149 150 150
211 210 211 213 212 210 211 213 214 214 215 216 216 217 218 221 223 224 225 224 221 219 217 212 205 197 193 193 191 190 191 191 190 193 194 188 178 174 169 161 157 151
214 211 211 212 212 211 212 215 217 218 216 215 215 216 218 220 223 225 227 228 225 222 220 216 212 206 202 202 199 196 196 198 198 199 202 200 193 190 184 176 169 158
217 214 212 212 213 214 215 216 218 220 220 218 216 216 219 221 223 224 227 230 230 229 225 220 216 212 209 209 208 204 202 203 204 204 204 206 205 202 199 193 186 174
219 217 215 214 214 215 218 219 218 219 222 222 220 219 219 222 225 226 227 230 233 234 232 228 223 217 214 213 212 211 211 210 210 208 208 209 211 211 209 205 198 189
219 217 215 215 215 216 220 222 220 219 220 222 223 223 222 223 225 227 229 231 234 236 237 235 232 226 220 218 216 215 216 217 217 214 213 215 216 215 214 212 209 204
221 218 215 214 215 217 220 222 223 220 219 220 223 225 227 228 228 228 230 232 235 237 239 239 238 235 230 226 222 220 220 221 221 219 218 221 222 220 219 218 217 216
223 222 219 216 215 216 218 221 223 222 220 220 223 225 229 232 233 233 233 234 236 239 241 242 241 240 238 235 229 225 224 224 225 224 222 224 226 226 225 224 223 221
223 224 223 221 217 215 216 219 222 223 223 222 223 225 228 232 235 236 237 238 239 240 242 243 243 242 241 241 236 231 229 228 228 227 226 227 229 230 231 230 228 225
223 223 225 224 222 218 215 216 219 223 225 225 224 225 227 230 233 235 236 238 239 239 241 243 244 245 245 244 242 239 235 234 233 232 230 230 231 232 234 234 232 229
223 223 224 225 225 223 219 216 217 221 224 225 225 225 226 228 230 233 234 236 237 238 239 241 243 245 247 247 247 245 242 240 239 238 235 234 235 236 236 237 235 233
225 224 224 225 226 226 224 221 220 221 223 224 225 226 226 227 229 231 232 233 235 237 238 239 240 243 245 247 248 247 245 243 243 242 241 239 239 240 240 240 239 236
227 227 226 226 226 227 226 225 223 223 224 224 225 226 227 228 229 231 232 233 234 236 238 239 240 242 243 245 247 247 246 245 244 245 244 243 243 243 242 243 243 241
230 230 229 229 228 228 227 227 226 226 226 226 227 228 228 229 231 233 235 236 237 237 239 240 242 242 243 244 245 247 247 246 245 246 246 247 246 245 243 244 246 246
233 232 232 231 231 230 229 229 228 227 228 228 229 229 229 230 232 234 237 238 239 240 240 242 243 243 243 243 244 246 248 248 247 247 248 248 249 248 246 245 247 249
234 234 234 234 233 234 233 232 231 230 230 230 231 231 231 231 232 234 236 238 239 241 242 243 244 243 243 243 243 244 246 249 249 249 248 249 249 249 248 247 248 249
231 234 236 236 236 236 236 235 234 234 233 232 233 233 233 233 233 234 236 238 239 241 242 244 245 245 245 245 244 244 245 248 250 251 251 250 250 250 249 249 249 249
228 232 235 237 237 237 238 238 238 237 237 236 236 235 235 235 236 236 236 238 239 241 242 244 245 246 247 247 247 246 246 248 250 251 252 251 251 251 251 251 250 250
227 228 231 234 237 238 239 240 240 240 240 240 239 239 238 238 238 238 238 239 240 241 242 244 245 246 247 248 248 247 248 249 250 251 252 252 251 252 252 252 252 251
232 230 229 231 234 236 237 238 239 240 241 242 242 241 241 241 240 241 241 241 242 243 244 244 244 245 245 246 247 247 247 249 251 251 252 251 251 251 251 252 253 253
238 237 234 233 233 234 236 238 239 241 242 243 244 244 244 244 243 243 243 243 244 244 245 245 245 244 244 244 244 244 245 248 250 251 251 251 250 250 251 252 252 253
243 241 238 237 236 236 237 239 240 241 243 245 246 247 246 246 246 245 245 245 246 246 246 247 247 245 244 241 240 240 242 245 248 249 250 251 250 251 252 253 254 254
244 241 237 235 236 236 238 240 241 241 242 244 246 248 249 248 248 248 247 247 247 247 247 249 249 247 245 241 238 237 239 243 246 249 251 251 251 252 253 254 255 255
243 239 234 232 233 234 236 238 240 240 240 241 244 246 248 249 249 250 249 248 247 247 248 250 249 248 247 243 238 236 237 240 244 248 250 251 252 253 253 254 255 255
243 238 233 233 234 234 236 237 237 238 239 240 242 244 246 248 249 249 248 247 247 247 248 249 249 248 247 245 240 237 237 239 241 245 248 251 253 254 254 254 255 254
240 237 237 238 239 239 239 239 238 238 239 239 240 242 245 247 248 249 248 247 246 245 245 247 248 248 248 247 244 240 239 239 240 242 246 249 252 254 254 255 254 254
Height
3209 3210 3212 3214 3216 3218 3220 3222 3223 3225 3226 3228 3229 3230 3231 3232 3233 3234 3235 3235 3236 3237 3238 3239 3240 3240 3241 3241 3242 3242 3243 3243 3244 3244 3245 3245 3245 3245 3246 3246 3246 3247
3207 3209 3211 3212 3215 3217 3219 3220 3222 3224 3225 3227 3228 3229 3230 3231 3232 3233 3234 3235 3236 3237 3238 3239 3240 3240 3241 3241 3242 3242 3243 3243 3244 3245 3245 3245 3245 3246 3246 3247 3247 3247
3206 3207 3209 3211 3213 3215 3217 3219 3221 3222 3224 3226 3227 3228 3229 3230 3231 3232 3233 3234 3235 3236 3237 3238 3239 3240 3240 3241 3241 3242 3243 3243 3244 3244 3245 3245 3246 3246 3247 3247 3247 3247
3205 3206 3208 3210 3212 3214 3216 3218 3219 3221 3222 3224 3225 3227 3228 3229 3230 3231 3232 3233 3234 3235 3236 3237 3238 3239 3240 3241 3241 3242 3242 3243 3244 3244 3245 3245 3246 3246 3247 3247 3247 3248
3204 3205 3207 3208 3210 3212 3213 3215 3217 3219 3221 3223 3224 3225 3226 3228 3229 3230 3231 3232 3233 3234 3235 3236 3237 3238 3239 3240 3240 3241 3242 3242 3243 3244 3244 3245 3246 3246 3247 3247 3248 3248
3202 3204 3205 3207 3208 3210 3211 3213 3216 3218 3219 3221 3223 3224 3225 3226 3228 3229 3230 3231 3232 3233 3234 3235 3236 3237 3238 3239 3240 3241 3241 3242 3242 3243 3244 3244 3245 3246 3246 3247 3247 3248
3200 3202 3204 3205 3207 3208 3209 3212 3214 3216 3218 3220 3221 3222 3224 3225 3226 3228 3229 3230 3231 3232 3233 3234 3235 3236 3237 3238 3239 3240 3240 3241 3242 3242 3243 3244 3244 3245 3246 3246 3247 3248
3199 3201 3202 3204 3205 3206 3208 3210 3212 3214 3216 3218 3219 3221 3222 3223 3225 3226 3227 3228 3230 3231 3232 3233 3234 3235 3236 3237 3238 3239 3240 3240 3241 3241 3242 3243 3244 3244 3245 3246 3246 3247
3197 3199 3200 3202 3203 3204 3206 3207 3210 3212 3214 3216 3217 3219 3220 3222 3223 3224 3226 3227 3228 3229 3230 3231 3232 3234 3235 3236 3237 3238 3239 3239 3240 3240 3241 3242 3243 3244 3244 3244 3245 3246
3195 3197 3198 3200 3201 3202 3204 3206 3207 3209 3211 3213 3216 3217 3219 3220 3221 3223 3224 3225 3226 3227 3229 3230 3231 3232 3233 3234 3236 3237 3238 3238 3239 3239 3240 3241 3242 3243 3243 3243 3244 3245
3193 3194 3196 3197 3199 3201 3202 3204 3206 3207 3208 3211 3213 3215 3217 3218 3219 3221 3222 3223 3224 3226 3227 3228 3229 3230 3231 3232 3234 3235 3236 3237 3238 3238 3239 3240 3240 3241 3242 3242 3243 3244
3190 3192 3193 3195 3197 3199 3201 3203 3204 3205 3206 3208 3210 3212 3214 3216 3217 3219 3220 3221 3223 3224 3225 3226 3228 3229 3230 3231 3232 3233 3235 3236 3237 3237 3238 3238 3239 3240 3240 3241 3242 3243
3188 3189 3191 3193 3194 3196 3198 3200 3202 3203 3204 3205 3207 3209 3210 3213 3214 3216 3218 3219 3221 3222 3223 3224 3226 3227 3228 3229 3230 3231 3232 3234 3235 3236 3236 3237 3238 3238 3239 3240 3240 3241
3186 3188 3189 3191 3193 3194 3196 3198 3199 3201 3202 3204 3205 3206 3207 3209 3211 3214 3215 3217 3218 3219 3221 3222 3223 3224 3225 3227 3228 3229 3230 3231 3233 3234 3235 3236 3236 3237 3237 3238 3239 3240
3185 3186 3188 3189 3191 3192 3193 3195 3197 3198 3200 3201 3202 3203 3205 3207 3209 3210 3212 3214 3215 3216 3218 3219 3220 3221 3223 3225 3226 3227 3228 3229 3230 3232 3233 3234 3235 3235 3236 3236 3237 3238
3182 3184 3186 3187 3188 3190 3191 3193 3194 3196 3197 3198 3200 3201 3203 3204 3206 3207 3209 3210 3212 3214 3215 3216 3217 3218 3220 3222 3224 3225 3226 3227 3228 3229 3230 3231 3232 3233 3234 3235 3235 3236
3179 3181 3183 3184 3186 3188 3189 3191 3192 3194 3195 3196 3197 3199 3200 3202 3203 3204 3206 3207 3209 3211 3212 3213 3214 3216 3218 3219 3221 3223 3224 3224 3225 3227 3228 3229 3229 3230 3231 3233 3234 3234
3176 3178 3180 3181 3183 3185 3187 3188 3190 3191 3192 3193 3195 3196 3198 3199 3200 3201 3203 3205 3206 3207 3209 3210 3212 3213 3215 3216 3218 3220 3221 3222 3222 3224 3225 3226 3227 3228 3229 3230 3231 3232
3172 3174 3176 3178 3180 3182 3184 3185 3187 3188 3190 3191 3192 3194 3195 3196 3197 3198 3200 3202 3203 3204 3206 3207 3209 3211 3212 3213 3215 3217 3218 3219 3219 3220 3221 3222 3224 3225 3226 3227 3228 3229
3167 3169 3172 3174 3176 3178 3180 3181 3183 3185 3187 3188 3190 3191 3192 3193 3194 3196 3197 3199 3200 3201 3203 3204 3206 3208 3209 3210 3212 3213 3215 3215 3216 3217 3218 3219 3220 3221 3222 3224 3225 3226
3164 3165 3168 3170 3173 3175 3176 3178 3180 3182 3184 3186 3187 3188 3189 3191 3192 3193 3194 3196 3197 3198 3200 3201 3203 3205 3206 3207 3208 3210 3211 3212 3212 3213 3214 3215 3216 3218 3219 3220 3222 3223
3161 3162 3164 3166 3169 3171 3173 3175 3177 3179 3181 3183 3184 3185 3187 3188 3189 3190 3192 3193 3194 3195 3196 3198 3200 3202 3203 3204 3205 3207 3207 3208 3208 3209 3210 3211 3213 3214 3216 3217 3218 3219
3157 3158 3160 3162 3164 3166 3168 3171 3173 3175 3177 3179 3180 3182 3184 3185 3186 3188 3189 3190 3191 3192 3193 3195 3197 3199 3200 3201 3203 3203 3204 3204 3205 3206 3207 3208 3209 3211 3212 3213 3215 3216
3153 3154 3156 3157 3159 3161 3164 3167 3169 3171 3173 3175 3176 3178 3180 3181 3183 3184 3185 3187 3188 3189 3190 3192 3193 3196 3197 3198 3200 3200 3201 3201 3202 3202 3203 3204 3206 3207 3208 3210 3211 3212
3150 3151 3152 3153 3155 3157 3160 3162 3165 3167 3169 3171 3172 3174 3176 3177 3179 3180 3182 3183 3184 3186 3187 3188 3190 3192 3194 3195 3197 3197 3197 3198 3198 3199 3199 3201 3202 3204 3205 3206 3207 3209
3147 3149 3150 3151 3153 3155 3157 3159 3160 3162 3164 3166 3168 3170 3172 3173 3175 3176 3178 3180 3181 3182 3183 3185 3186 3189 3190 3192 3193 3194 3194 3194 3194 3194 3195 3197 3199 3200 3201 3203 3204 3206